Apalachicola Bay - St. George Island Weather Center

Moon Phase Calendar



Online Cameras

 


      

Current Conditions in Apalachicola
6/16/2024 1:39:59 AM

82°F
Feels Like 91
Clear
Humidity
83%
Pressure
29.97"
Wind
5.8 mph (S)
Dew Point
77°F
UV Index
0/10 (Low)
Visibility
6 mi

Hourly Forecast

Date & Time Sun, Jun 16
1:00 AM
Sun, Jun 16
2:00 AM
Sun, Jun 16
3:00 AM
Sun, Jun 16
4:00 AM
Sun, Jun 16
5:00 AM
Sun, Jun 16
6:00 AM
Sun, Jun 16
7:00 AM
Sun, Jun 16
8:00 AM
Sun, Jun 16
9:00 AM
Sun, Jun 16
10:00 AM
Sun, Jun 16
11:00 AM
Sun, Jun 16
12:00 PM
Sun, Jun 16
1:00 PM
Sun, Jun 16
2:00 PM
Sun, Jun 16
3:00 PM
Sun, Jun 16
4:00 PM
Sun, Jun 16
5:00 PM
Sun, Jun 16
6:00 PM
Sun, Jun 16
7:00 PM
Sun, Jun 16
8:00 PM
Sun, Jun 16
9:00 PM
Sun, Jun 16
10:00 PM
Sun, Jun 16
11:00 PM
Mon, Jun 17
12:00 AM
Mon, Jun 17
1:00 AM
Mon, Jun 17
2:00 AM
Mon, Jun 17
3:00 AM
Mon, Jun 17
4:00 AM
Mon, Jun 17
5:00 AM
Mon, Jun 17
6:00 AM
Mon, Jun 17
7:00 AM
Mon, Jun 17
8:00 AM
Mon, Jun 17
9:00 AM
Mon, Jun 17
10:00 AM
Mon, Jun 17
11:00 AM
Mon, Jun 17
12:00 PM
Mon, Jun 17
1:00 PM
Mon, Jun 17
2:00 PM
Mon, Jun 17
3:00 PM
Mon, Jun 17
4:00 PM
Mon, Jun 17
5:00 PM
Mon, Jun 17
6:00 PM
Mon, Jun 17
7:00 PM
Mon, Jun 17
8:00 PM
Mon, Jun 17
9:00 PM
Mon, Jun 17
10:00 PM
Mon, Jun 17
11:00 PM
Tue, Jun 18
12:00 AM
Condition
Rain

Clear

Clear

Clear

Clear

Clear

Clear

Rain

Rain

Rain

Rain

Rain

Clouds

Clouds

Clouds

Rain

Rain

Clouds

Clouds

Clouds

Clouds

Rain

Rain

Rain

Rain

Rain

Clouds

Rain

Clouds

Rain

Clouds

Clouds

Clouds

Clouds

Clouds

Clouds

Clouds

Clouds

Clouds

Clouds

Clouds

Clouds

Clouds

Clouds

Clouds

Clouds

Rain

Rain
Temperature 82°F82°F82°F81°F81°F80°F80°F82°F83°F85°F85°F86°F86°F86°F86°F86°F85°F85°F85°F83°F81°F79°F79°F79°F79°F79°F79°F79°F79°F79°F79°F80°F81°F82°F84°F84°F85°F86°F87°F87°F87°F86°F85°F84°F83°F83°F84°F83°F
Feels Like 89°F91°F89°F88°F86°F85°F80°F88°F89°F91°F91°F92°F92°F93°F92°F92°F91°F90°F90°F89°F86°F79°F79°F80°F80°F79°F79°F80°F79°F79°F79°F80°F86°F87°F88°F89°F89°F90°F91°F91°F91°F90°F89°F88°F88°F88°F89°F88°F
Cloudiness 0%0%0%0%0%2%2%5%89%94%96%97%98%98%100%100%100%100%98%99%81%91%94%95%96%97%100%100%100%100%100%100%100%100%100%100%100%100%100%100%100%100%100%100%100%100%100%100%
Visibility 6 mi6 mi6 mi6 mi6 mi6 mi6 mi6 mi6 mi6 mi6 mi6 mi6 mi6 mi6 mi6 mi6 mi6 mi6 mi6 mi6 mi6 mi6 mi6 mi6 mi6 mi6 mi6 mi6 mi6 mi6 mi6 mi6 mi6 mi6 mi6 mi6 mi6 mi6 mi6 mi6 mi6 mi6 mi6 mi6 mi6 mi6 mi6 mi
Precipitation 96%76%0%0%0%0%0%70%100%100%100%100%80%80%43%99%100%74%85%80%0%100%100%100%100%100%0%50%40%36%28%17%0%0%0%0%0%0%0%0%0%0%0%0%0%9%53%60%
Humidity 82%83%82%82%82%83%83%79%75%68%67%63%63%62%61%62%62%63%65%69%74%79%81%82%82%78%80%82%82%85%85%80%75%70%65%62%60%59%56%55%55%57%59%64%68%68%66%67%
Dew Point 76°F77°F76°F75°F75°F75°F74°F75°F74°F73°F73°F72°F72°F72°F72°F71°F71°F71°F71°F72°F72°F72°F73°F72°F73°F72°F72°F73°F73°F74°F74°F73°F73°F72°F71°F70°F70°F69°F69°F69°F69°F69°F69°F70°F71°F72°F71°F71°F
Pressure 29.97"29.97"29.97"29.97"29.94"29.94"29.97"30"30"30.03"30.03"30.03"30.03"30.03"30.03"30.03"30"30"29.97"30"30"30.03"30.03"30.03"30.03"30.03"30"30"30"30"30.03"30.03"30.03"30.03"30.03"30.03"30.03"30.03"30"30"29.97"29.97"29.97"29.97"29.97"29.97"30"30"
Wind Speed 7.1 mph5 mph5.1 mph5.6 mph6.5 mph6.2 mph7.5 mph10.4 mph10.6 mph10.7 mph11.4 mph12 mph11.2 mph10.8 mph10.7 mph9.3 mph8.2 mph7.5 mph8.6 mph7.8 mph3.3 mph2.6 mph4.4 mph4.6 mph6.4 mph6.4 mph8.2 mph9.5 mph10.1 mph10.8 mph12.1 mph13.1 mph14.8 mph17 mph17.1 mph17.5 mph17.3 mph16.3 mph13.2 mph11 mph10 mph9.3 mph8 mph7.9 mph9.8 mph12.5 mph17.6 mph17.5 mph
Wind
Direction
142°
SE
145°
SE
132°
SE
133°
SE
132°
SE
128°
SE
128°
SE
126°
SE
119°
ESE
133°
SE
133°
SE
135°
SE
138°
SE
146°
SE
142°
SE
143°
SE
148°
SSE
177°
S
195°
SSW
211°
SSW
242°
WSW
119°
ESE
108°
ESE
95°
E
101°
E
100°
E
88°
E
98°
E
104°
ESE
95°
E
94°
E
94°
E
96°
E
98°
E
99°
E
102°
ESE
105°
ESE
110°
ESE
122°
ESE
137°
SE
150°
SSE
150°
SSE
139°
SE
122°
ESE
114°
ESE
101°
E
97°
E
98°
E

Daily Forecast

Date High Low Precip. Humidity
Today
Jun 16

Rain
86 °F
79 °F
100%
63%
Monday
Jun 17

Rain
87 °F
79 °F
100%
60%
Tuesday
Jun 18

Rain
88 °F
80 °F
100%
58%
Wednesday
Jun 19

Rain
86 °F
79 °F
36%
53%
Thursday
Jun 20

Rain
90 °F
75 °F
33%
49%
Friday
Jun 21

Rain
87 °F
78 °F
100%
65%
Saturday
Jun 22

Rain
88 °F
80 °F
59%
64%
Sunday
Jun 23

Rain
88 °F
80 °F
100%
63%
Monday
Jun 24

Rain
89 °F
81 °F
68%
57%
Tuesday
Jun 25

Rain
88 °F
81 °F
22%
62%
Wednesday
Jun 26

Rain
87 °F
80 °F
100%
64%
Thursday
Jun 27

Rain
86 °F
78 °F
100%
78%
Friday
Jun 28

Rain
88 °F
81 °F
100%
65%
Saturday
Jun 29

Rain
88 °F
80 °F
100%
66%
Sunday
Jun 30

Rain
85 °F
77 °F
94%
76%
Monday
Jul 1

Clouds
86 °F
74 °F
0%
64%

Temperature 8-14 Day Outlook



Precipitation 8-14 Day Outlook






About Us
Contact Us
Site Map
Search Site
Advertise With Us
   
Apalachicola.USGulf.info
THE APALACHICOLA BAY - ST. GEORGE ISLAND WEBSITE

Copyright 2024, Coastal Town
Privacy    |    Legal